COSMOS 832

Satellite information

Favourite Embed

Satellite Type and Status

PAYLOADIN ORBIT

Key statistics

Satellite COSMOS 832 at a glance.

Uptime

17921

Days in orbit

Revolutions

≈ 12.4

Per day

Orbit

LEO

Low Earth Orbit

Inclination

74.0

Latest

Satellite identification and parameters

Extended collection of information and parameters for COSMOS 832.

Object identification

Identified? True

Debris? False

Object name: COSMOS 832

International designator: 1976-054H

Object number (NORAD): 8896

Object ID (CCSDS): 8896

Country: COMMONWEALTH OF INDEPENDENT STATES (CIS)

Current information (Y/N): Y

RCS size: MEDIUM

Orbital parameters

Period: 116.006 minutes

Inclination: 74.0008 deg

SMA: 7879.164 km

Apoapsis: 1520.014 km

Periapsis: 1482.043 km

RAAN: 46.7096 deg

Eccentricy: 0.0024096

Argument of periapsis: 79.0309 deg

Mean anomaly: 292.9124 deg

Mean motion: 12.4131665 rev/day

Mean motion (dot): 0.00000003 rev/day2

B* drag term: 0.00013734 1/REarth

Two-line elements (TLE)

Creation date: July 8, 2025, 2:27 a.m.

Reference frame: TEME

Reference center: EARTH

Epoch: July 7, 2025, 8:42 p.m. UTC

TLE line 0: 0 COSMOS 832

TLE line 1: 1 08896U 76054H 25188.86261336 .00000003 00000-0 13734-3 0 9996

TLE line 2: 2 08896 74.0008 46.7096 0024096 79.0309 292.9124 12.41316650223176

Live tracking on map

Real-time ground track for satellite COSMOS 832.

In-orbit conjunctions

There are no conjunctions computed for COSMOS 832, at the moment. Check back to stay up to date, as we update our databases every day.

Go to all conjunctions

Associated space launch

Military communications satellites

COSMOS 832 was lifted into orbit during the mission ‘Kosmos-3M | Strela-1M 113-120’, on board a Kosmos-3M space rocket.

The launch took place on June 15, 1976, 1:19 p.m. from 132/2.

For more information about the launch, click the button.

Launch to space Kosmos-3M | Strela-1M 113-120
Kosmos-3M | Strela-1M 113-120

Agency: N/A

Status: Launch Successful

Launch date: June 15, 1976, 1:19 p.m. UTC

Rocket: Kosmos-3M

Launch pad: 132/2

Location: Plesetsk Cosmodrome, Russian Federation

...

Latest news about this satellite

There are no fresh news available about this satellite. Check back as we update our databases every day.


Newsletter sign-up

Weekly statistics, charts and insights to help you stay on top of the space industry.